TimeCDT,TemperatureF,Dew PointF,Humidity,Sea Level PressureIn,VisibilityMPH,Wind Direction,Wind SpeedMPH,Gust SpeedMPH,PrecipitationIn,Events,Conditions,WindDirDegrees,DateUTC
12:15 AM,48.2,46.4,93,30.21,4.0,NE,8.1,-,N/A,Thunderstorm,Overcast,50,2012-10-05 05:15:00
12:35 AM,48.2,46.4,93,30.23,3.0,North,8.1,-,N/A,Thunderstorm,Overcast,350,2012-10-05 05:35:00
12:55 AM,48.2,46.4,93,30.25,4.0,North,3.5,-,N/A,Rain-Thunderstorm,Light Rain,350,2012-10-05 05:55:00
1:15 AM,48.2,46.4,93,30.25,4.0,NE,3.5,-,N/A,Thunderstorm,Overcast,40,2012-10-05 06:15:00
1:35 AM,48.2,46.4,93,30.25,2.5,NE,5.8,-,N/A,Rain-Thunderstorm,Heavy Rain,40,2012-10-05 06:35:00
1:55 AM,48.2,46.4,93,30.26,1.8,NE,8.1,-,N/A,Rain-Thunderstorm,Heavy Thunderstorms and Rain,50,2012-10-05 06:55:00
2:15 AM,48.2,46.4,93,30.24,3.0,NE,8.1,-,N/A,,Light Drizzle,50,2012-10-05 07:15:00
2:35 AM,48.2,46.4,93,30.24,5.0,NE,8.1,-,N/A,Thunderstorm,Unknown,50,2012-10-05 07:35:00
2:55 AM,48.2,46.4,93,30.24,3.0,NE,5.8,-,N/A,Rain-Thunderstorm,Light Rain,40,2012-10-05 07:55:00
3:15 AM,48.2,46.4,93,30.23,2.5,NNE,5.8,-,N/A,Rain-Thunderstorm,Light Rain,30,2012-10-05 08:15:00
3:35 AM,48.2,46.4,93,30.23,3.0,NE,6.9,-,N/A,Thunderstorm,Light Drizzle,50,2012-10-05 08:35:00
3:55 AM,48.2,46.4,93,30.23,4.0,ENE,5.8,-,N/A,Thunderstorm,Overcast,60,2012-10-05 08:55:00
4:15 AM,48.2,46.4,93,30.23,5.0,NE,5.8,-,N/A,Thunderstorm,Overcast,50,2012-10-05 09:15:00
4:35 AM,48.2,46.4,93,30.25,7.0,North,5.8,-,N/A,Thunderstorm,Overcast,350,2012-10-05 09:35:00
4:55 AM,48.2,46.4,93,30.24,5.0,NNE,5.8,-,N/A,Thunderstorm,Overcast,20,2012-10-05 09:55:00
5:15 AM,48.2,46.4,93,30.24,5.0,NNE,6.9,-,N/A,,Overcast,20,2012-10-05 10:15:00
5:35 AM,48.2,46.4,93,30.26,4.0,NNE,6.9,-,N/A,Rain,Light Rain,20,2012-10-05 10:35:00
5:55 AM,46.4,46.4,100,30.25,2.5,NE,8.1,-,N/A,Rain-Thunderstorm,Light Rain,40,2012-10-05 10:55:00
6:15 AM,46.4,46.4,100,30.24,5.0,NE,9.2,-,N/A,,Overcast,40,2012-10-05 11:15:00
6:35 AM,46.4,44.6,93,30.23,5.0,NE,11.5,-,N/A,,Overcast,50,2012-10-05 11:35:00
6:55 AM,46.4,44.6,93,30.24,6.0,NE,6.9,-,N/A,,Overcast,40,2012-10-05 11:55:00
7:15 AM,46.4,44.6,93,30.24,5.0,NNE,8.1,-,N/A,,Overcast,30,2012-10-05 12:15:00
7:35 AM,46.4,44.6,93,30.24,5.0,NNE,6.9,-,N/A,,Overcast,30,2012-10-05 12:35:00
7:55 AM,46.4,44.6,93,30.24,5.0,NE,6.9,-,N/A,,Overcast,40,2012-10-05 12:55:00
8:15 AM,46.4,44.6,93,30.23,4.0,NE,6.9,-,N/A,,Overcast,40,2012-10-05 13:15:00
8:35 AM,46.4,44.6,93,30.24,4.0,NE,6.9,-,N/A,,Overcast,50,2012-10-05 13:35:00
8:55 AM,46.4,44.6,93,30.24,3.0,NE,5.8,-,N/A,,Light Drizzle,50,2012-10-05 13:55:00
9:15 AM,46.4,44.6,93,30.23,3.0,NE,6.9,-,N/A,,Overcast,40,2012-10-05 14:15:00
9:35 AM,46.4,46.4,100,30.24,4.0,NE,5.8,-,N/A,,Overcast,40,2012-10-05 14:35:00
9:55 AM,48.2,44.6,87,30.23,5.0,ENE,6.9,-,N/A,,Overcast,60,2012-10-05 14:55:00
10:15 AM,48.2,44.6,87,30.23,4.0,NE,6.9,-,N/A,,Overcast,40,2012-10-05 15:15:00
10:35 AM,48.2,44.6,87,30.24,5.0,NE,6.9,-,N/A,,Overcast,40,2012-10-05 15:35:00
10:55 AM,48.2,42.8,82,30.23,5.0,NE,8.1,-,N/A,,Haze,50,2012-10-05 15:55:00
11:15 AM,48.2,44.6,87,30.23,5.0,NE,6.9,-,N/A,,Overcast,50,2012-10-05 16:15:00
11:35 AM,48.2,44.6,87,30.24,5.0,NE,6.9,-,N/A,,Overcast,40,2012-10-05 16:35:00
12:15 PM,48.2,42.8,82,30.25,4.0,NE,6.9,-,N/A,,Haze,50,2012-10-05 17:15:00
12:35 PM,48.2,42.8,82,30.22,3.0,NE,11.5,-,N/A,Rain,Light Rain,50,2012-10-05 17:35:00
12:55 PM,46.4,42.8,87,30.22,3.0,NE,11.5,-,N/A,,Haze,40,2012-10-05 17:55:00
1:35 PM,46.4,44.6,93,30.24,5.0,North,10.4,-,N/A,,Overcast,360,2012-10-05 18:35:00
1:55 PM,46.4,42.8,87,30.23,5.0,North,11.5,-,N/A,,Haze,10,2012-10-05 18:55:00
2:15 PM,46.4,41.0,81,30.24,5.0,North,12.7,-,N/A,,Haze,360,2012-10-05 19:15:00
2:35 PM,46.4,41.0,81,30.25,8.0,North,12.7,21.9,N/A,,Overcast,350,2012-10-05 19:35:00
2:55 PM,46.4,41.0,81,30.24,6.0,North,13.8,-,N/A,,Haze,360,2012-10-05 19:55:00
3:15 PM,46.4,39.2,76,30.25,7.0,North,15.0,19.6,N/A,,Overcast,360,2012-10-05 20:15:00
3:35 PM,48.2,39.2,71,30.25,5.0,North,8.1,-,N/A,,Haze,360,2012-10-05 20:35:00
3:55 PM,48.2,37.4,66,30.24,7.0,North,13.8,24.2,N/A,,Overcast,360,2012-10-05 20:55:00
4:15 PM,48.2,37.4,66,30.24,5.0,North,12.7,20.7,N/A,,Haze,10,2012-10-05 21:15:00
4:35 PM,48.2,35.6,62,30.23,3.0,NNE,11.5,17.3,N/A,,Haze,30,2012-10-05 21:35:00
4:55 PM,48.2,37.4,66,30.22,3.0,NNE,8.1,-,N/A,,Haze,30,2012-10-05 21:55:00
5:15 PM,48.2,37.4,66,30.22,3.0,NNE,9.2,-,N/A,,Haze,30,2012-10-05 22:15:00
5:35 PM,48.2,37.4,66,30.24,4.0,North,8.1,16.1,N/A,,Haze,10,2012-10-05 22:35:00
5:55 PM,48.2,37.4,66,30.24,3.0,North,8.1,-,N/A,,Haze,10,2012-10-05 22:55:00
6:15 PM,48.2,37.4,66,30.25,3.0,NNE,5.8,-,N/A,,Haze,20,2012-10-05 23:15:00
6:35 PM,46.4,35.6,66,30.25,5.0,North,10.4,-,N/A,,Haze,10,2012-10-05 23:35:00
6:55 PM,46.4,35.6,66,30.25,5.0,North,5.8,-,N/A,,Haze,10,2012-10-05 23:55:00
7:15 PM,44.6,37.4,76,30.25,7.0,NNE,4.6,-,N/A,,Clear,20,2012-10-06 00:15:00
7:35 PM,41.0,35.6,81,30.26,10.0,North,6.9,-,N/A,,Clear,360,2012-10-06 00:35:00
7:55 PM,39.2,35.6,87,30.26,10.0,North,5.8,-,N/A,,Clear,360,2012-10-06 00:55:00
8:15 PM,39.2,35.6,87,30.27,10.0,North,5.8,-,N/A,,Clear,350,2012-10-06 01:15:00
8:35 PM,39.2,35.6,87,30.28,10.0,North,6.9,-,N/A,,Clear,350,2012-10-06 01:35:00
8:55 PM,39.2,35.6,87,30.28,10.0,North,5.8,-,N/A,,Clear,360,2012-10-06 01:55:00
9:15 PM,37.4,35.6,93,30.28,10.0,North,4.6,-,N/A,,Clear,350,2012-10-06 02:15:00
9:35 PM,39.2,35.6,87,30.28,10.0,Calm,Calm,-,N/A,,Clear,0,2012-10-06 02:35:00
9:55 PM,39.2,33.8,81,30.29,10.0,Calm,Calm,-,N/A,,Clear,0,2012-10-06 02:55:00
10:35 PM,37.4,33.8,87,30.29,10.0,Calm,Calm,-,N/A,,Clear,0,2012-10-06 03:35:00
10:55 PM,35.6,33.8,93,30.29,10.0,Calm,Calm,-,N/A,,Clear,0,2012-10-06 03:55:00
11:15 PM,37.4,35.6,93,30.29,10.0,Calm,Calm,-,N/A,,Clear,0,2012-10-06 04:15:00
11:35 PM,35.6,33.8,93,30.29,10.0,Calm,Calm,-,N/A,,Clear,0,2012-10-06 04:35:00
11:55 PM,33.8,33.8,100,30.30,8.0,Calm,Calm,-,N/A,,Clear,0,2012-10-06 04:55:00